Estherville, IA

4:54 AM CDT on May 21, 2018 (GMT -0500)
Estherville Municipal

Weather History for KEST - January, 2012

Change the Weather History Date:

Monday, January 2, 2012

  Actual Average Record
Temperature  
Mean Temperature 13 °F 16 °F  
Max Temperature 20 °F 24 °F 52 °F (1964)
Min Temperature 6 °F 7 °F -26 °F (1974)
Degree Days  
Heating Degree Days 52 49  
Month to date heating degree days 90 98  
Since 1 July heating degree days 2776 3241  
Cooling Degree Days 0 0  
Month to date cooling degree days 0 0  
Year to date cooling degree days 0 0  
Moisture  
Dew Point 9 °F    
Average Humidity 78    
Maximum Humidity 88    
Minimum Humidity 67    
Precipitation  
Precipitation 0.00 in 0.00 in 0.60 in (1960)
Month to date precipitation T 0.01  
Year to date precipitation T  
Sea Level Pressure  
Sea Level Pressure 30.53 in    
Wind  
Wind Speed 15 mph (NW)    
Max Wind Speed 30 mph    
Max Gust Speed 39 mph    
Visibility 10 miles    
Events      
T = Trace of Precipitation, MM = Missing Value Source: NWS Daily Summary

Daily Weather History Graph

Daily Weather History Graph

Search for Another Location

Airport or City:

Astronomy

Jan. 02, 2012 Rise Set
Actual Time 7:51 AM CST 4:54 PM CST
Civil Twilight 7:19 AM CST 5:26 PM CST
Nautical Twilight 6:43 AM CST 6:02 PM CST
Astronomical Twilight 6:08 AM CST 6:37 PM CST
Moon 12:15 PM CST (1/2) 1:40 AM CST (1/2)
Length of Visible Light 10h 07m
Length of Day
9h 02m
Waxing Gibbous, 64% of the Moon is Illuminated
Jan 2
Waxing Gibbous
Jan 9
Full
Jan 16
Last Quarter
Jan 23
New
Jan 30
First Quarter

Hourly Weather History & Observations

Time (CST) Temp. Windchill Dew Point Humidity Pressure Visibility Wind Dir Wind Speed Gust Speed Precip Events Conditions
12:24 AM 19.4 °F 1.8 °F 12.2 °F 74% 30.40 in 10.0 mi NW 25.3 mph 38.0 mph N/A   Mostly Cloudy
12:52 AM 19.0 °F 2.0 °F 12.0 °F 74% 30.46 in 10.0 mi NNW 23.0 mph 39.1 mph N/A   Mostly Cloudy
1:00 AM 19.4 °F 0.8 °F 12.2 °F 74% 30.40 in 10.0 mi NW 28.8 mph 34.5 mph N/A   Scattered Clouds
1:52 AM 18.0 °F 0.9 °F 10.9 °F 74% 30.46 in 10.0 mi NW 21.9 mph 32.2 mph N/A   Clear
2:52 AM 17.1 °F 0.6 °F 10.0 °F 74% 30.47 in 10.0 mi NW 19.6 mph 27.6 mph N/A   Clear
3:52 AM 17.1 °F 0.1 °F 9.0 °F 71% 30.48 in 10.0 mi NW 20.7 mph - N/A   Clear
4:52 AM 16.0 °F -0.9 °F 9.0 °F 74% 30.47 in 10.0 mi NW 19.6 mph - N/A   Clear
5:52 AM 16.0 °F -1.3 °F 8.1 °F 71% 30.50 in 10.0 mi NW 20.7 mph 29.9 mph N/A   Clear
6:52 AM 15.1 °F -3.3 °F 8.1 °F 74% 30.51 in 10.0 mi NNW 23.0 mph 31.1 mph N/A   Clear
7:52 AM 14.0 °F -6.2 °F 8.1 °F 77% 30.53 in 10.0 mi NNW 27.6 mph 34.5 mph N/A   Clear
8:52 AM 14.0 °F -4.7 °F 8.1 °F 77% 30.56 in 10.0 mi NNW 23.0 mph 32.2 mph N/A   Clear
9:52 AM 15.1 °F -3.7 °F 8.1 °F 74% 30.58 in 10.0 mi NNW 24.2 mph 29.9 mph N/A   Clear
10:52 AM 16.0 °F -0.9 °F 9.0 °F 74% 30.59 in 10.0 mi NNW 19.6 mph - N/A   Clear
11:52 AM 17.1 °F 0.1 °F 9.0 °F 71% 30.59 in 10.0 mi NNW 20.7 mph 29.9 mph N/A   Clear
1:52 PM 19.0 °F 3.2 °F 10.0 °F 68% 30.58 in 10.0 mi NNW 19.6 mph - N/A   Clear
2:52 PM 19.0 °F 4.0 °F 10.9 °F 71% 30.58 in 10.0 mi NW 17.3 mph - N/A   Clear
3:52 PM 19.0 °F 6.1 °F 10.9 °F 71% 30.59 in 10.0 mi NW 12.7 mph - N/A   Clear
4:52 PM 16.0 °F 5.3 °F 9.0 °F 74% 30.59 in 10.0 mi NW 8.1 mph - N/A   Clear
5:52 PM 12.9 °F 1.6 °F 8.1 °F 81% 30.58 in 10.0 mi WNW 8.1 mph - N/A   Clear
6:52 PM 10.9 °F 0.2 °F 6.1 °F 81% 30.57 in 10.0 mi NW 6.9 mph - N/A   Clear
7:52 PM 9.0 °F 0.6 °F 5.0 °F 84% 30.56 in 10.0 mi WNW 4.6 mph - N/A   Clear
8:52 PM 9.0 °F 0.6 °F 3.9 °F 80% 30.56 in 10.0 mi West 4.6 mph - N/A   Clear
9:52 PM 7.0 °F - 3.9 °F 87% 30.55 in 10.0 mi Calm Calm - N/A   Clear
10:52 PM 8.1 °F - 5.0 °F 87% 30.53 in 10.0 mi Calm Calm - N/A   Clear
11:52 PM 9.0 °F 2.4 °F 6.1 °F 88% 30.52 in 10.0 mi SSW 3.5 mph - N/A   Clear